Content
SEND FEEDBACK

Daily
Averages
Monthly
Summary
United Kingdom

BECK ROW, ENGLAND


Home > Europe > United Kingdom > England
Elevation: 33 feet     Latitude: 52 22N     Longitude: 000 28E

WEATHER
 
SELECT A DAY
Number of Records: 168,117;   Date Range: 8/10/96 - 9/1/14
 
SHARE

PRINT THIS DATA

[ ← Previous Day ]
WEATHER ALMANAC - NOVEMBER 21, 2013
[ Next Day → ]
[ °C ]   °F
Weather ElementAverageHighLow
Temperature39.7 °F48.2 °F (12:48 pm)34.7 °F (9:58 pm)
Dewpoint34.1 °F39.2 °F (4:19 am)28.4 °F (9:58 pm)
Humidity80.9 %93 % (2:30 am)54 % (12:48 pm)
Barometer29.69 in29.94 in (11:58 pm)29.39 in (2:30 am)
Wind Speed8.9 mph15 mph (7:26 am)
Wind Gust21.9 mph (1:23 pm)
Weather ElementAverage
Visibility6.2 mi
Wind DirectionSE (130.8 °)

Weather ElementTotal
Precipitation0.02 in
Heating Degree Days23.6 (Base 65)
Averaged from 48 records on November 21, 2013
WEATHER CONDITIONS BREAKOUT
WIND DIRECTION BREAKOUT
WEATHER BY HOUR - NOVEMBER 21, 2013
[ °C ]   °F
Local TimeTemperatureDewpointHumidityBarometerVisibilityWind DirectionWind SpeedGust SpeedPrecipitationEventsConditions
2:30 AM37.4 °F35.6 °F93 %29.39 in6.2 miNW (320°)10.4 mphRainLight Rain
2:37 AM37.4 °F35.6 °F93 %29.39 in6.2 miNNW (330°)9.2 mphRainLight Rain
2:54 AM37.4 °F35.6 °F93 %29.39 in6.2 miNNW (330°)9.2 mphOvercast
2:58 AM37.8 °F35.4 °F91 %29.40 in6.2 miNNW (330°)11.5 mph0.00 inOvercast
3:22 AM39.2 °F35.6 °F87 %29.41 in6.2 miNorth (360°)10.4 mphOvercast
3:26 AM39.2 °F35.6 °F87 %29.40 in6.2 miNorth (350°)11.5 mphRainLight Rain
3:38 AM39.2 °F37.4 °F93 %29.42 in6.2 miNorth (10°)10.4 mphRainLight Rain
3:46 AM39.2 °F37.4 °F93 %29.42 in6.2 miNNE (20°)9.2 mphRainLight Rain
3:49 AM39.2 °F37.4 °F93 %29.42 in6.2 miNNE (20°)9.2 mphOvercast
3:50 AM39.2 °F37.4 °F93 %29.42 in6.2 miNNE (20°)8.1 mphOvercast
4:19 AM41.0 °F39.2 °F93 %29.44 in6.2 miNE (40°)13.8 mphOvercast
4:32 AM41.0 °F39.2 °F93 %29.45 in6.2 miNNE (30°)12.7 mphOvercast
4:58 AM40.8 °F37.8 °F89 %29.48 in6.2 miNNE (30°)12.7 mph20.7 mph0.00 inRainLight Rain
5:25 AM41.0 °F37.4 °F87 %29.49 in6.2 miNNE (20°)10.4 mphOvercast
5:46 AM41.0 °F37.4 °F87 %29.51 in6.2 miNNE (20°)12.7 mphOvercast
5:49 AM41.0 °F37.4 °F87 %29.51 in6.2 miNNE (20°)11.5 mphOvercast
5:58 AM40.5 °F36.3 °F85 %29.52 in6.2 miNNE (30°)12.7 mph0.00 inOvercast
6:54 AM41.0 °F35.6 °F81 %29.55 in6.2 miNNE (30°)11.5 mphMostly Cloudy
7:13 AM41.0 °F35.6 °F81 %29.57 in6.2 miNE (40°)12.7 mphMostly Cloudy
7:26 AM41.0 °F35.6 °F81 %29.58 in6.2 miNE (50°)15.0 mphRainLight Rain
7:39 AM41.0 °F37.4 °F87 %29.59 in6.2 miNE (50°)13.8 mphRainLight Rain
9:14 AM42.8 °F35.6 °F76 %29.64 in6.2 miNE (40°)10.4 mphScattered Clouds
12:48 PM48.2 °F32.0 °F54 %29.73 in6.2 miNE (40°)13.8 mphMostly Cloudy
1:23 PM48.2 °F32.0 °F54 %29.74 in6.2 miNNE (30°)11.5 mph21.9 mphMostly Cloudy
2:11 PM46.4 °F32.0 °F57 %29.76 in6.2 miNE (50°)10.4 mphRainLight Rain
2:29 PM42.8 °F32.0 °F66 %29.77 in6.2 miNE (50°)9.2 mphMostly Cloudy
3:55 PM42.8 °F33.8 °F70 %29.78 in6.2 miNorth (10°)6.9 mphMostly Cloudy
3:58 PM42.1 °F32.7 °F69 %29.81 in6.2 miNorth (10°)8.1 mphMostly Cloudy
4:58 PM39.9 °F31.1 °F71 %29.83 in6.2 miNNE (20°)6.9 mphPartly Cloudy
5:58 PM39.9 °F30.7 °F70 %29.86 in6.2 miNorth (360°)4.6 mphPartly Cloudy
6:58 PM38.1 °F30.9 °F75 %29.87 in6.2 miNorth (360°)2.3 mphScattered Clouds
7:58 PM35.4 °F28.9 °F77 %29.88 in6.2 miNNW (340°)3.5 mphClear
8:58 PM34.9 °F28.6 °F78 %29.91 in6.2 miNNE (20°)2.3 mphClear
9:58 PM34.7 °F28.4 °F78 %29.92 in6.2 miNorth (360°)4.6 mphPartly Cloudy
10:11 PM35.6 °F30.2 °F81 %29.91 in6.2 miNorth (360°)5.8 mphRainLight Rain
10:29 PM37.4 °F32.0 °F81 %29.92 in6.2 miNNE (20°)8.1 mphRainLight Rain
10:32 PM37.4 °F32.0 °F81 %29.92 in6.2 miNorth (10°)8.1 mphRainLight Rain
10:39 PM37.4 °F32.0 °F81 %29.92 in6.2 miNorth (10°)8.1 mphRainLight Rain
10:45 PM39.2 °F32.0 °F75 %29.92 in6.2 miNNE (20°)8.1 mphRainLight Rain
10:46 PM39.2 °F32.0 °F75 %29.93 in6.2 miNNE (30°)8.1 mphRainLight Rain
10:58 PM39.0 °F33.8 °F82 %29.93 in6.2 miNorth (10°)8.1 mph0.01 inRainLight Rain
10:59 PM39.2 °F33.8 °F81 %29.92 in6.2 miNNE (20°)9.2 mphRainLight Rain
11:05 PM39.2 °F33.8 °F81 %29.92 in6.2 miNorth (360°)5.8 mphRainLight Rain
11:08 PM39.2 °F32.0 °F75 %29.92 in6.2 miVariable5.8 mphScattered Clouds
11:28 PM37.4 °F32.0 °F81 %29.93 in6.2 miNNW (340°)5.8 mphRainLight Rain
11:42 PM39.2 °F33.8 °F81 %29.93 in6.2 miNW (320°)5.8 mphRainLight Rain
11:58 PM38.5 °F34.0 °F84 %29.94 in6.2 miNW (320°)4.6 mph0.01 inRainLight Rain
11:59 PM37.4 °F32.0 °F81 %29.93 in6.2 miNW (320°)4.6 mphMostly Cloudy
Hourly data recorded from EGUN, located miles away from Beck Row, England







STORIES FROM OUR PARTNERS